Time,B instrument,Bx,By,Bz,sigma B,Ion instrument,Status,Tp_par,Tp_perp,carrot,r_sun,clat,clong,earth_he_angle,n_p,vp_x,vp_y,vp_z,vth_p_par,vth_p_perp
1980-05-17 00:00:04,1,-6.92222,-10.4333,-2.64444,0.274424,1,1,43191.9,36001.4,1695,0.39981461,-6.6964569,250.34302,311.64771,56.1798,249.225,1.00274,1.35508,26.7029,24.3791
1980-05-17 00:00:44,1,-6.63333,-10.5667,-2.2,0.397213,1,1,44848.3,36093.9,1695,0.39981455,-6.696456,250.33521,311.64771,58.1593,249.367,0.940166,0.856719,27.2102,24.4104
1980-05-17 00:01:25,1,-4.48182,-11.2727,-2.62727,0.520489,1,1,44690.2,35327.0,1695,0.39980602,-6.6963158,250.3335,311.6499,57.4191,244.699,3.98424,2.67481,27.1621,24.1497
1980-05-17 00:02:05,1,-5.0,-10.3,-3.12222,0.758328,1,1,48587.9,35727.2,1695,0.3997975,-6.6961756,250.32788,311.6521,58.353,244.879,2.9347,3.49199,28.3219,24.2861
1980-05-17 00:02:46,1,-4.4,-9.55,-3.2125,0.584032,1,1,45050.3,39462.1,1695,0.3997975,-6.6961756,250.32007,311.6521,61.2694,245.229,1.16305,4.77068,27.2714,25.524
1980-05-17 00:03:26,1,-3.74444,-9.26667,-2.48889,0.54682,1,1,46660.5,39793.4,1695,0.39978898,-6.6960354,250.31836,311.6543,61.3768,245.423,3.87637,2.2912,27.7545,25.6309
1980-05-17 00:04:07,1,-4.16667,-10.3,-3.05556,0.353117,1,1,44003.4,42101.6,1695,0.39978045,-6.6958952,250.31299,311.65674,60.3205,245.431,2.9815,3.28622,26.9526,26.3638
1980-05-17 00:04:47,1,-4.47778,-9.63333,-2.87778,0.228792,1,1,44485.6,43446.0,1695,0.39978045,-6.6958952,250.30908,311.65674,60.0422,246.938,4.83026,2.19862,27.0999,26.7814
1980-05-17 00:05:28,1,-5.62,-8.86,-4.68,0.370945,1,1,45318.3,44338.0,1695,0.39977193,-6.695755,250.30347,311.65894,62.1622,249.48,3.78731,6.86294,27.3524,27.0549
1980-05-17 00:06:08,1,-5.78889,-10.3111,-4.52222,0.489141,1,1,45680.6,39275.3,1695,0.39976341,-6.6956148,250.29785,311.66113,56.8627,248.968,2.4779,6.12197,27.4615,25.4635
1980-05-17 00:06:49,1,-4.72,-10.41,-3.58,0.41,1,1,45493.4,40338.3,1695,0.39976341,-6.6956148,250.29395,311.66113,56.4978,248.909,3.92006,5.05908,27.4052,25.8058
1980-05-17 00:07:29,1,-5.71,-10.15,-4.93,0.430697,1,1,42181.3,37638.8,1695,0.39975488,-6.6954746,250.28857,311.66357,57.6039,249.97,3.28542,6.55057,26.3887,24.9273
1980-05-17 00:08:10,1,-6.06364,-10.6182,-5.28182,0.535824,1,1,40279.4,34376.9,1695,0.39974636,-6.6953344,250.28687,311.66577,53.3552,249.57,1.55959,5.96779,25.7869,23.8227
1980-05-17 00:08:50,1,-6.36667,-10.6222,-5.45556,0.407946,1,1,42688.2,37809.6,1695,0.39974636,-6.6953344,250.27905,311.66577,55.3071,249.551,1.96712,8.95155,26.5468,24.9838
1980-05-17 00:09:31,1,-5.02727,-11.5,-3.39091,0.46816,1,1,41404.8,34809.9,1695,0.39973783,-6.6951933,250.27344,311.66797,55.8522,249.626,1.08217,6.8505,26.1447,23.9723
1980-05-17 00:10:11,1,-4.82222,-11.3444,-2.87778,0.373175,1,1,45157.5,35531.1,1695,0.39972931,-6.6950531,250.27197,311.67041,55.9982,248.773,2.44185,4.5975,27.3038,24.2193
1980-05-17 00:10:52,1,-5.80909,-10.8091,-3.13636,0.787611,1,1,42576.2,37199.5,1695,0.39972925,-6.6950531,250.26416,311.67041,58.9115,251.354,2.08539,3.33308,26.5119,24.7814
1980-05-17 00:11:32,1,-6.85556,-10.7556,-2.56667,0.353466,1,1,40655.5,35808.2,1695,0.39972073,-6.6949129,250.26245,311.67261,56.1859,251.489,0.750582,1.23758,25.907,24.3136
1980-05-17 00:12:13,1,-6.80909,-10.0818,-2.54545,0.427756,1,1,44970.3,35728.7,1695,0.3997122,-6.6947727,250.25684,311.6748,57.7749,253.267,2.48048,1.21235,27.2471,24.2866
1980-05-17 00:12:53,1,-8.38889,-7.63333,-0.722222,0.537943,1,1,39284.4,35341.9,1695,0.3997122,-6.6947727,250.25293,311.6748,59.5057,257.285,2.76904,-2.70067,25.4664,24.1548
1980-05-17 00:13:34,1,-7.33,-8.11,-0.43,0.790633,1,1,41534.6,42493.6,1695,0.39970368,-6.6946325,250.24756,311.67725,56.5589,256.038,0.357379,-3.34902,26.1856,26.4862
1980-05-17 00:14:14,1,-6.1,-9.76,-4.71,0.599416,1,1,45552.8,44132.6,1695,0.39969516,-6.6944923,250.24194,311.67944,61.6589,252.569,3.18871,5.40629,27.423,26.9922
1980-05-17 00:14:55,1,-5.54545,-9.39091,-5.85455,1.04026,1,1,44639.9,43128.5,1695,0.39969516,-6.6944923,250.23804,311.67944,60.9624,253.113,2.42194,7.373,27.1468,26.6833
1980-05-17 00:15:35,1,-2.7,-10.4667,-4.91111,2.65265,1,1,46306.0,34559.9,1695,0.39968663,-6.6943521,250.23242,311.68164,55.4963,249.882,1.52122,5.4126,27.6488,23.886
1980-05-17 00:16:16,1,-1.02,-10.74,-5.12,0.309192,1,1,43318.0,39285.7,1695,0.39967811,-6.694212,250.23096,311.68408,62.6423,244.006,6.07863,6.1741,26.7419,25.4668
1980-05-17 00:16:56,1,-3.17778,-10.0667,-4.87778,2.15847,1,1,42260.1,41811.5,1695,0.39967811,-6.694212,250.22314,311.68408,61.0334,245.381,4.08506,6.50648,26.4133,26.2728
1980-05-17 00:17:37,1,1.68,-9.27,-5.26,2.75029,1,1,45957.0,41374.2,1695,0.39966959,-6.6940708,250.21753,311.68628,59.1644,243.626,3.55075,4.9436,27.5444,26.135
1980-05-17 00:18:17,1,1.93,-9.82,-5.36,0.547814,1,1,43890.1,42080.9,1695,0.39966106,-6.6939306,250.21582,311.68848,59.4116,236.372,4.19552,8.75047,26.9179,26.3573
1980-05-17 00:18:58,1,1.75,-9.92,-5.16,0.310644,1,1,42411.4,41836.1,1695,0.39966106,-6.6939306,250.20801,311.68848,61.1795,236.133,3.98605,8.11356,26.4606,26.2805
1980-05-17 00:19:38,1,2.03333,-8.65556,-6.43333,0.622024,1,1,40380.7,41776.2,1695,0.39965254,-6.6937904,250.20654,311.69092,61.0881,235.618,3.40926,10.7616,25.8193,26.2617
1980-05-17 00:20:19,1,2.64,-8.11,-4.9,0.90846,1,1,42938.9,41827.6,1695,0.39964402,-6.6936502,250.20093,311.69312,65.3635,236.417,1.72714,6.17038,26.6246,26.2778
1980-05-17 00:20:59,1,6.23333,-6.62222,-5.18889,0.67036,1,1,52267.5,41629.8,1695,0.39964396,-6.6936502,250.19312,311.69312,65.7245,232.125,-4.59763,7.29502,29.3747,26.2156
1980-05-17 00:21:40,1,5.02,-6.65,-5.46,0.323265,1,1,45607.2,40493.3,1695,0.39963543,-6.6935101,250.19141,311.69531,64.744,232.421,-4.36948,8.59879,27.4394,25.8553
1980-05-17 00:22:20,1,5.0375,-7.05,-5.15,0.370599,1,1,50360.6,41762.0,1695,0.39962691,-6.6933699,250.18579,311.69751,64.3658,231.486,-3.64567,7.70883,28.8339,26.2572
1980-05-17 00:23:01,1,4.57,-7.25,-5.42,0.382361,1,1,45858.5,39780.3,1695,0.39961839,-6.6932297,250.18433,311.69995,63.1014,234.039,-2.7185,7.49759,27.5149,25.6267
1980-05-17 00:23:41,1,4.5875,-6.3125,-7.05,0.377078,1,1,51561.8,41320.1,1695,0.39961839,-6.6932297,250.17651,311.69995,67.9945,233.898,-4.68505,9.31982,29.1757,26.1179
1980-05-17 00:24:22,1,2.42,-7.42,-6.82,2.94869,1,1,47026.3,40718.9,1695,0.39960986,-6.6930895,250.1748,311.70215,66.6367,232.225,-5.05031,11.1869,27.863,25.9272
1980-05-17 00:25:02,1,-0.755556,-9.51111,-5.27778,0.46746,1,1,42067.2,42153.9,1695,0.39960134,-6.6929493,250.16919,311.70435,61.3327,242.769,7.08817,7.84009,26.353,26.3801
1980-05-17 00:25:43,1,-1.67778,-9.01111,-4.65556,1.14923,1,1,43528.8,42881.4,1695,0.39960134,-6.6929493,250.16138,311.70435,63.153,243.131,6.4605,7.7564,26.8069,26.6068
1980-05-17 00:26:23,1,0.233333,-10.2889,-6.21111,0.623412,1,1,41960.4,44770.1,1695,0.39959282,-6.6928082,250.15991,311.70679,60.5718,240.048,4.8887,7.21149,26.3195,27.1864
1980-05-17 00:27:04,1,-0.1,-10.3111,-5.81111,0.43688,1,1,43249.9,43919.4,1695,0.39958429,-6.692668,250.1543,311.70898,59.6588,241.434,4.74318,6.73491,26.7209,26.9269
1980-05-17 00:27:44,1,-1.83333,-9.93333,-5.32222,0.315446,1,1,42062.5,42114.4,1695,0.39958429,-6.692668,250.15039,311.70898,60.523,244.695,5.03886,6.16556,26.3515,26.3678
1980-05-17 00:28:25,1,-0.811111,-10.1333,-4.3,2.09944,1,1,43215.3,42707.6,1695,0.39957577,-6.6925278,250.14478,311.71118,60.4326,244.666,3.99669,6.35376,26.7102,26.5528
1980-05-17 00:29:05,1,-4.21111,-10.5111,-5.98889,0.627753,1,1,43009.3,41216.4,1695,0.39956725,-6.6923876,250.1394,311.71362,57.712,248.158,3.73439,6.6995,26.6464,26.0851
1980-05-17 00:29:46,1,-3.34545,-10.5273,-5.57273,0.591678,1,1,42526.5,42294.8,1695,0.39956725,-6.6923876,250.1355,311.71362,60.0717,247.262,3.89206,6.43646,26.4965,26.4242
1980-05-17 00:30:26,1,-2.36667,-11.1,-5.85556,0.340298,1,1,43314.1,42963.6,1695,0.39955872,-6.6922474,250.12988,311.71582,59.9181,244.984,4.98873,6.05208,26.7407,26.6323
1980-05-17 00:31:07,1,-3.5,-10.3778,-4.43333,0.664627,1,1,41833.7,45560.3,1695,0.39955014,-6.6921072,250.12817,311.71802,60.7666,247.771,5.20249,2.16418,26.2797,27.4253
1980-05-17 00:31:47,1,-4.74444,-10.5889,-4.47778,0.411861,1,1,43977.5,39388.6,1695,0.39955014,-6.6921072,250.12036,311.71802,58.0948,249.039,3.88786,3.21687,26.9447,25.5002
1980-05-17 00:32:28,1,-3.8,-10.85,-4.66,0.492849,1,1,43527.2,41864.1,1695,0.39954162,-6.691967,250.11499,311.72046,61.1856,247.523,3.98909,3.94494,26.8064,26.2893
1980-05-17 00:33:08,1,-4.58889,-9.92222,-3.36667,0.462414,1,1,47996.1,43113.7,1695,0.39953309,-6.6918268,250.11328,311.72266,62.0267,249.289,3.30915,1.12493,28.1489,26.6788
1980-05-17 00:33:49,1,-4.32,-10.31,-3.37,0.911373,1,1,46785.0,42950.6,1695,0.39953309,-6.6918268,250.10547,311.72266,61.6261,247.494,3.99174,1.2894,27.7915,26.6282
1980-05-17 00:34:29,1,-4.2,-10.22,-1.9,1.24884,1,1,49075.6,41919.4,1695,0.39952457,-6.6916866,250.10376,311.72485,64.3133,247.204,1.12794,-3.89429,28.4637,26.3067
1980-05-17 00:35:10,1,-5.71818,-9.59091,-1.03636,1.22959,1,1,48404.7,40928.8,1695,0.39951605,-6.6915455,250.09839,311.72729,62.4851,249.165,4.50809,2.18422,28.2684,25.9939
1980-05-17 00:35:50,1,-6.68889,-10.3222,-3.98889,0.524228,1,1,41010.0,38676.9,1695,0.39951605,-6.6915455,250.09448,311.72729,56.0352,249.85,2.92455,1.38149,26.0197,25.2688
1980-05-17 00:36:31,1,-6.50909,-10.1364,-3.20909,0.352089,1,1,42812.0,39012.5,1695,0.39950752,-6.6914053,250.08887,311.72949,59.0838,249.04,1.98382,2.43584,26.5852,25.3781
1980-05-17 00:37:11,1,-6.36667,-10.6444,-3.1,0.437445,1,1,41684.2,36128.4,1695,0.399499,-6.6912651,250.08325,311.73169,57.8972,249.126,3.66095,2.07415,26.2327,24.4221
1980-05-17 00:37:52,1,-6.5,-10.97,-3.22,0.4997,1,1,41540.7,37953.5,1695,0.399499,-6.6912651,250.07935,311.73169,57.3666,249.062,3.30854,2.52769,26.1875,25.0313
1980-05-17 00:38:32,1,-7.1,-10.4,-3.68889,0.387139,1,1,43477.9,36724.9,1695,0.39949048,-6.6911249,250.07397,311.73413,60.0455,248.278,3.67462,2.59633,26.7912,24.6228
1980-05-17 00:39:13,1,-7.74545,-9.29091,-3.73636,0.794402,1,1,44543.7,39513.7,1695,0.39948195,-6.6909847,250.07227,311.73633,60.7438,253.906,1.58343,1.43043,27.1176,25.5406
1980-05-17 00:39:53,1,-8.14444,-8.61111,-2.81111,0.678233,1,1,42081.2,42576.8,1695,0.39948195,-6.6909847,250.06445,311.73633,59.1714,251.373,2.77477,2.43347,26.3574,26.5121
1980-05-17 00:40:34,1,-8.54545,-9.7,-3.07273,0.446103,1,1,43435.4,37830.1,1695,0.39947337,-6.6908445,250.05884,311.73853,57.6713,249.958,2.08317,2.4081,26.7781,24.9906
1980-05-17 00:41:14,1,-8.33333,-9.55556,-2.95556,0.435181,1,1,40564.3,37496.1,1695,0.39946485,-6.6907043,250.05713,311.74072,55.934,248.947,3.16853,3.17615,25.878,24.88
1980-05-17 00:41:55,1,-6.81818,-9.97273,-3.95455,0.666432,1,1,41733.5,39854.7,1695,0.39946485,-6.6907043,250.04932,311.74072,59.5236,249.735,2.36098,3.31459,26.2482,25.6506
1980-05-17 00:42:35,1,-4.94444,-10.6333,-4.38889,0.667592,1,1,41503.4,38418.3,1695,0.39945632,-6.6905642,250.04785,311.74316,57.1118,247.288,4.47844,4.51468,26.1758,25.1841
1980-05-17 00:43:16,1,-1.17,-10.46,-6.94,0.47634,1,1,46380.3,38590.0,1695,0.3994478,-6.690424,250.04224,311.74536,58.6924,240.534,3.09234,8.51975,27.671,25.2403
1980-05-17 00:43:56,1,-2.67778,-10.5444,-6.25556,0.681502,1,1,48000.4,37400.9,1695,0.3994478,-6.690423,250.03833,311.74536,60.3226,241.893,3.02205,8.52653,28.1501,24.8484
1980-05-17 00:44:37,1,-3.3,-10.98,-6.18,0.720555,1,1,43092.8,38786.0,1695,0.39943928,-6.6902828,250.03271,311.74756,57.2106,242.982,4.25122,5.04603,26.6723,25.3044
1980-05-17 00:45:17,1,-4.22,-11.39,-4.46,1.16228,1,1,42237.5,33930.4,1695,0.39943075,-6.6901426,250.02734,311.75,57.7719,243.725,5.9237,5.41475,26.4063,23.6675
1980-05-17 00:45:58,1,-5.11111,-11.2444,-4.21111,0.454606,1,1,42393.5,35111.2,1695,0.39943075,-6.6901426,250.02344,311.75,58.9164,245.822,6.04537,1.75929,26.455,24.0758
1980-05-17 00:46:38,1,-4.45556,-11.1778,-3.27778,0.51568,1,1,45150.8,38847.1,1695,0.39942223,-6.6900024,250.01782,311.7522,58.2207,245.233,4.13506,1.1532,27.3018,25.3243
1980-05-17 00:47:19,1,-4.5,-11.5111,-3.14444,0.523992,1,1,41243.7,36665.5,1695,0.3994137,-6.6898623,250.01611,311.75439,56.6204,245.624,4.93248,0.456541,26.0938,24.6029
1980-05-17 00:47:59,1,-4.28889,-10.9778,-3.98889,0.486864,1,1,43306.2,38151.9,1695,0.3994137,-6.6898623,250.0083,311.75439,58.1376,245.388,7.36367,2.40008,26.7382,25.0967
1980-05-17 00:48:40,1,-5.73333,-10.7333,-3.18889,0.433191,1,1,42165.9,38796.2,1695,0.39940518,-6.6897221,250.00293,311.75684,57.4685,246.903,4.56008,1.78276,26.3839,25.3077
1980-05-17 00:49:20,1,-5.31111,-11.1889,-4.16667,0.382648,1,1,41187.0,30498.5,1695,0.39939666,-6.6895819,250.00122,311.75903,57.9648,247.722,5.16714,2.1719,26.0758,22.4387
1980-05-17 00:50:01,1,-5.97,-11.0,-3.78,0.322025,1,1,42474.3,35867.1,1695,0.39938813,-6.6894417,249.99561,311.76123,55.7709,247.25,4.4993,2.83372,26.4802,24.3336
1980-05-17 00:50:41,1,-4.7,-11.9,-3.71111,0.650546,1,1,37281.0,32286.1,1695,0.39938807,-6.6894417,249.9917,311.76123,59.0458,246.293,7.92545,2.44873,24.8086,23.0869
1980-05-17 00:51:22,1,-7.68889,-10.4222,-2.95556,0.310316,1,1,42845.2,36018.3,1695,0.39937955,-6.6893015,249.98633,311.76367,56.0212,249.706,3.54858,2.12958,26.5956,24.3848
1980-05-17 00:52:02,1,-7.65556,-10.7778,-3.22222,0.345339,1,1,42331.1,35246.7,1695,0.39937103,-6.6891603,249.98071,311.76587,55.7947,248.561,4.16876,3.50213,26.4355,24.1222
1980-05-17 00:52:43,1,-6.68,-11.15,-3.66,0.352846,1,1,40958.4,30618.9,1695,0.39937103,-6.6891603,249.97681,311.76587,55.0229,247.971,4.4613,2.55928,26.0034,22.4829
1980-05-17 00:53:23,1,-6.97778,-11.2444,-4.34444,0.24037,1,1,39148.7,31666.6,1695,0.3993625,-6.6890202,249.97119,311.76807,53.7995,247.048,5.51674,4.08828,25.4224,22.8643
1980-05-17 00:54:04,1,-7.49,-10.61,-3.97,0.609836,1,1,41853.3,37604.7,1695,0.39935398,-6.68888,249.96973,311.77051,56.0648,247.619,4.62689,3.27463,26.2859,24.9161
1980-05-17 00:54:44,1,-7.96667,-10.0889,-4.15556,0.363793,1,1,42740.9,36682.5,1695,0.39935398,-6.68888,249.96191,311.77051,55.5454,247.0,4.41489,3.46028,26.5631,24.6086
1980-05-17 00:55:25,1,-6.44,-10.9,-3.56,1.23645,1,1,45211.4,35085.4,1695,0.39934546,-6.6887398,249.96021,311.77271,55.2711,247.411,5.74693,3.21965,27.3201,24.067
1980-05-17 00:56:05,1,-3.32,-12.14,-3.27,1.27519,1,1,43191.2,35754.9,1695,0.39933693,-6.6885996,249.95459,311.7749,56.4415,243.388,7.59068,1.89029,26.7027,24.2955
1980-05-17 00:56:46,1,-4.51111,-11.9889,-3.27778,0.351715,1,1,42610.2,35172.9,1695,0.39933693,-6.6885996,249.94678,311.7749,56.2406,241.483,7.20907,3.22335,26.5225,24.097
1980-05-17 00:57:26,1,-7.21111,-10.6111,-3.74444,1.10955,1,1,38939.3,37283.6,1695,0.39932841,-6.6884594,249.94531,311.77734,56.8336,243.553,7.67818,1.92379,25.3543,24.8094
1980-05-17 00:58:07,1,-4.56667,-11.2222,-3.63333,0.750966,1,1,39693.1,34087.8,1695,0.39931989,-6.6883192,249.9397,311.77954,52.4749,243.058,5.4943,2.1759,25.5985,23.7223
1980-05-17 00:58:47,1,-2.1,-11.5667,-3.24444,0.194999,1,1,43178.8,31221.0,1695,0.39931989,-6.6883192,249.93579,311.77954,56.9832,239.904,3.74959,2.04822,26.6989,22.7029
1980-05-17 00:59:28,1,-2.52,-11.33,-3.2,0.260192,1,1,46285.8,33012.3,1695,0.39931136,-6.688179,249.93018,311.78174,58.4689,238.532,4.01576,2.41966,27.6428,23.3451
1980-05-17 01:00:08,1,-2.13333,-11.3222,-2.8,0.376468,1,1,46521.7,32898.0,1695,0.39930284,-6.6880388,249.9248,311.78418,57.7674,239.353,4.41159,2.54316,27.7131,23.3046
1980-05-17 01:00:49,1,-1.58889,-11.6222,-2.97778,0.394405,1,1,38500.4,32336.7,1695,0.39930278,-6.6880379,249.9209,311.78418,54.4657,238.909,6.28583,1.27631,25.211,23.105
1980-05-17 01:01:29,1,-2.57778,-11.6222,-2.93333,0.338479,1,1,45301.0,31627.5,1695,0.39929432,-6.6878967,249.91528,311.78638,57.1736,239.509,5.76281,2.46417,27.3471,22.8502
1980-05-17 01:02:10,1,-2.43,-11.76,-2.44,0.27,1,1,37016.3,31047.5,1695,0.39928579,-6.6877546,249.91357,311.78857,54.9528,239.909,5.9842,1.3015,24.7203,22.6397
1980-05-17 01:02:50,1,-2.0875,-11.425,-2.75,0.274716,1,1,45308.1,30339.1,1695,0.39928579,-6.6877546,249.90576,311.78857,57.098,239.192,5.3824,1.42899,27.3493,22.38
1980-05-17 01:03:31,1,-2.01,-11.52,-2.36,0.25865,1,1,40727.6,31785.5,1695,0.39927727,-6.6876125,249.90039,311.79102,56.0359,239.793,4.90728,1.86539,25.93,22.9072
1980-05-17 01:04:11,1,-1.7,-11.45,-2.075,0.521416,1,1,45918.7,36070.7,1695,0.39926875,-6.6874714,249.89868,311.79321,57.2384,239.733,4.77088,1.74993,27.5329,24.4025
1980-05-17 01:04:52,1,-2.02222,-11.4556,-2.1,0.703782,1,1,45410.6,34860.5,1695,0.39926875,-6.6874714,249.89087,311.79321,58.6847,239.937,2.0006,1.65003,27.3802,23.9897
1980-05-17 01:05:32,1,-2.12222,-10.5778,-2.12222,0.353815,1,1,52333.0,33944.6,1695,0.39926022,-6.6873293,249.88916,311.79541,59.7854,240.553,1.4333,1.68699,29.3931,23.6724
1980-05-17 01:06:13,1,-1.82222,-10.1,-2.21111,0.389365,1,1,48698.8,33914.6,1695,0.3992517,-6.6871881,249.88379,311.79785,61.6116,239.391,-0.493772,1.99143,28.3542,23.662
1980-05-17 01:06:53,1,-1.94444,-10.1333,-2.25556,0.422222,1,1,53261.5,35311.6,1695,0.3992517,-6.6871872,249.87988,311.79785,60.9004,240.335,1.28138,1.8936,29.6527,24.1444
1980-05-17 01:43:15,-1,nan,nan,nan,nan,1,3,nan,nan,1695,0.39893651,-6.681942,249.62817,311.88208,nan,247.84,3.05313,4.82619,nan,nan
1980-05-17 01:43:55,1,-3.5,-9.45,-3.9875,1.50452,1,1,47792.1,33278.1,1695,0.39893651,-6.681942,249.62036,311.88208,63.762,248.298,-0.958384,10.3579,28.089,23.4389
1980-05-17 01:44:36,1,-4.15,-9.85,-3.0,0.308221,1,1,47613.6,33305.8,1695,0.39892799,-6.6817999,249.61865,311.88428,60.4574,239.861,8.00406,-0.877217,28.0365,23.4486
1980-05-17 01:45:16,1,-4.6375,-9.6875,-3.8,0.718288,1,1,43283.9,33882.1,1695,0.39891946,-6.6816587,249.61328,311.88672,55.9102,244.264,7.75448,-0.868344,26.7314,23.6507
1980-05-17 01:45:58,1,-0.325,-10.9,-2.55,0.761167,1,1,40110.1,33257.4,1695,0.39891946,-6.6816578,249.60938,311.88672,60.375,241.097,8.5182,-2.91086,25.7326,23.4316
1980-05-17 01:46:38,1,1.85556,-10.6111,-1.95556,0.37614,1,1,37421.8,35022.0,1695,0.39891094,-6.6815166,249.60376,311.88892,61.5401,237.376,8.67954,-0.858387,24.8554,24.0452
1980-05-17 01:47:19,1,0.5875,-11.0625,-1.75,0.297384,1,1,37669.7,36347.5,1695,0.39890242,-6.6813745,249.59814,311.89111,61.8027,238.791,10.4479,-0.96305,24.9375,24.496
1980-05-17 01:47:59,1,0.7125,-11.1125,-2.1,0.373748,1,1,40513.4,33461.5,1695,0.39890242,-6.6813745,249.59424,311.89111,62.3128,241.352,8.52461,-0.14136,25.8617,23.5034
1980-05-17 01:48:40,1,0.733333,-10.9222,-1.33333,0.345697,1,1,37051.6,33707.0,1695,0.39889389,-6.6812325,249.58887,311.89355,61.2709,240.269,9.12639,-2.13364,24.7321,23.5895
1980-05-17 01:49:20,1,-0.244444,-10.8444,-2.0,0.499382,1,1,39840.2,36475.9,1695,0.39888543,-6.6810913,249.58716,311.89575,62.1296,241.411,8.74026,-0.638594,25.6459,24.5392
1980-05-17 01:50:01,1,2.0,-9.54444,-1.58889,0.602874,1,1,41332.0,36607.1,1695,0.39887691,-6.6809492,249.58154,311.89795,62.8242,239.085,6.2577,-2.05559,26.1217,24.5833
1980-05-17 01:50:41,1,2.01111,-9.62222,-1.73333,0.25483,1,1,45937.2,36019.5,1695,0.39887691,-6.6809492,249.57764,311.89795,63.5019,237.344,5.45381,-1.32153,27.5385,24.3852
1980-05-17 01:51:22,1,2.0,-9.66667,-2.26667,0.253859,1,1,42965.2,35135.4,1695,0.39886838,-6.6808081,249.57227,311.90039,60.3044,238.309,5.49614,0.015101,26.6328,24.0841
1980-05-17 01:52:02,1,3.35556,-9.31111,-2.08889,0.426875,1,1,43863.5,36295.3,1695,0.39885986,-6.680666,249.56665,311.90259,63.1545,237.058,5.37704,-0.662092,26.9097,24.4784
1980-05-17 01:52:43,1,2.47778,-9.51111,-2.62222,0.485341,1,1,38380.3,35102.9,1695,0.39885986,-6.680666,249.56274,311.90259,60.9744,239.19,5.85201,0.190528,25.1717,24.073
1980-05-17 01:53:23,1,1.04444,-9.72222,-2.57778,0.351715,1,1,43913.8,36599.3,1695,0.39885134,-6.6805239,249.55713,311.90479,64.7155,239.269,6.58355,-0.192723,26.9252,24.5807
1980-05-17 01:54:04,1,-1.07778,-10.4778,-1.54444,0.370185,1,1,39251.7,34268.8,1695,0.39884281,-6.6803827,249.55566,311.90723,59.6864,241.551,9.10767,-1.88603,25.4558,23.7852
1980-05-17 01:54:44,1,-0.17,-10.06,-2.44,0.962756,1,1,42469.3,34942.8,1695,0.39884281,-6.6803818,249.54785,311.90723,63.5069,241.06,6.30871,0.28577,26.4786,24.018
1980-05-17 01:55:25,1,0.5,-10.1444,-1.7,0.394718,1,1,40116.5,35334.9,1695,0.39883429,-6.6802406,249.54224,311.90942,62.7961,239.892,7.02906,-0.795632,25.7347,24.1524
1980-05-17 01:56:05,1,2.72222,-9.23333,-1.28889,0.291442,1,1,39562.4,33445.4,1695,0.39882576,-6.6800985,249.54053,311.91162,62.1797,237.68,5.5001,-1.18056,25.5564,23.4977
1980-05-17 01:56:46,1,1.05,-9.56,-1.06,0.432782,1,1,41010.3,35452.2,1695,0.39882576,-6.6800985,249.53271,311.91162,61.5761,238.505,6.58186,-1.95719,26.0198,24.1924
1980-05-17 01:57:26,1,0.344444,-9.64444,-1.01111,0.342107,1,1,42674.1,33278.3,1695,0.39881724,-6.6799564,249.53125,311.91406,62.8835,239.491,6.03908,-1.46821,26.5424,23.439
1980-05-17 01:58:07,1,-0.06,-9.73,-1.3,0.283725,1,1,43895.5,33405.0,1695,0.39880872,-6.6798153,249.52563,311.91626,62.3069,240.507,6.06586,-1.29214,26.9196,23.4835
1980-05-17 01:58:47,1,0.377778,-9.91111,-1.73333,1.26949,1,1,41129.8,35062.5,1695,0.39880872,-6.6798153,249.52173,311.91626,63.8552,241.971,7.38109,-0.972699,26.0577,24.0591
1980-05-17 01:59:28,1,1.64444,-10.4,-1.51111,0.351364,1,1,34794.6,35202.8,1695,0.39880019,-6.6796732,249.51611,311.91846,61.5525,238.953,8.48807,-1.17434,23.967,24.1072
1980-05-17 02:00:08,1,0.477778,-10.1667,-0.711111,0.724526,1,1,42824.4,33966.7,1695,0.39879173,-6.6795321,249.51074,311.9209,62.8135,240.51,6.94717,-3.09615,26.5891,23.6802
1980-05-17 02:00:49,1,3.26667,-9.51111,-0.577778,0.784888,1,1,42846.1,37119.3,1695,0.39879167,-6.6795311,249.50684,311.9209,62.4576,238.423,6.40967,-1.52242,26.5958,24.7547
1980-05-17 02:01:29,1,2.78889,-9.15556,-1.18889,0.133333,1,1,40486.6,35146.0,1695,0.39878321,-6.679388,249.50122,311.9231,64.6108,237.792,5.88,-2.09232,25.8531,24.0877
1980-05-17 02:02:10,1,2.13333,-9.38889,-0.733333,0.495411,1,1,36910.4,34787.6,1695,0.39877468,-6.679245,249.49951,311.92529,61.9388,237.437,8.00439,-2.40809,24.6849,23.9646
1980-05-17 02:02:50,1,2.8,-9.2,-0.755556,0.397523,1,1,40331.4,33451.2,1695,0.39877468,-6.679245,249.4917,311.92529,63.1398,237.167,5.42481,-2.58785,25.8035,23.4998
1980-05-17 02:03:31,1,2.84444,-9.28889,-1.46667,0.46081,1,1,38821.6,34596.6,1695,0.39876616,-6.6791019,249.48633,311.92773,62.1612,237.495,5.65918,-1.16296,25.316,23.8987
1980-05-17 02:04:11,1,2.82222,-9.24444,-1.68889,0.217732,1,1,39681.0,33119.2,1695,0.39875764,-6.6789589,249.48462,311.92993,63.7876,236.883,5.62573,-1.32518,25.5946,23.3829
1980-05-17 02:04:52,1,3.08889,-8.86667,-1.45556,0.331849,1,1,37197.9,34055.0,1695,0.39875764,-6.6789589,249.47681,311.92993,65.0609,236.414,6.22608,-0.915543,24.7809,23.7109
1980-05-17 02:05:32,1,2.86667,-9.11111,-1.71111,0.286313,1,1,41118.9,35208.5,1695,0.39874917,-6.6788158,249.4751,311.93213,64.9575,237.171,4.88349,-1.5668,26.0542,24.1091
1980-05-17 02:06:13,1,2.74444,-8.91111,-1.55556,0.198139,1,1,41841.5,34192.6,1695,0.39874065,-6.6786728,249.46973,311.93457,66.5618,236.8,6.11601,-1.27472,26.2822,23.7588
1980-05-17 02:06:53,1,2.77,-9.1,-1.53,0.219545,1,1,37430.6,33287.2,1695,0.39874065,-6.6786728,249.46191,311.93457,64.3267,237.414,4.1052,-1.73154,24.8583,23.4421
1980-05-17 02:07:34,1,2.7,-8.96,-0.74,0.474131,1,1,40445.4,35950.6,1695,0.39873213,-6.6785297,249.46021,311.93677,65.2243,237.412,4.77247,-1.85444,25.84,24.3619
1980-05-17 02:08:14,1,2.64444,-9.27778,-1.37778,0.382003,1,1,42598.4,35567.4,1695,0.3987236,-6.6783867,249.45483,311.93921,63.6213,237.767,4.82825,-1.06638,26.5188,24.2317
1980-05-17 02:08:55,1,2.62,-9.55,-1.8,0.515849,1,1,42247.6,35206.2,1695,0.3987236,-6.6783867,249.45093,311.93921,63.0874,237.085,5.8063,-0.954853,26.4094,24.1083
1980-05-17 02:09:35,1,2.6,-9.14444,-1.3,0.442496,1,1,42320.0,35659.3,1695,0.39871514,-6.6782436,249.44531,311.94141,62.4039,236.787,5.58999,-1.56341,26.4321,24.263
1980-05-17 02:10:16,1,2.23333,-9.02222,-0.4,0.480226,1,1,40116.8,36026.7,1695,0.39870661,-6.6781006,249.4436,311.9436,63.2916,237.542,5.36856,-2.75308,25.7348,24.3877